Погода в Сент-Эмильоне

Франция     44°53′38″N   0°09′21″E
темп.,
°C
ветер,
м/с
пор.,
м/с
влажн.,
%
обл.,
%
осадки,
мм/ч
давл.,
гПа
погр.,
м
21 января, чт
чт2101:00+11ююз6157491 0.1 1001831
04:00+11юз6148088 0.3 1002784
07:00+11юз4109494 5.3 1004566
10:00+11юз41189100 1.4 1004636
13:00+13ююз71276100 1.5 1003970
16:00+12ююз81881100 2.0 10011305
19:00+11зюз61592100 6.9 10011061
22:00+10юз51782100 1.1 10011501
22 января, пт
пт2201:00+9ююз5148899 1.6 999794
04:00+10ююз7167960 0.1 996583
07:00+9юз389078 0.6 993360
10:00+8з41095100 10.5 994703
13:00+8сз71275100 10.8 9991065
16:00+9зсз5117194 0.2 10021417
19:00+6з3108095 0.3 1005342
22:00+6зюз388263 0.1 1005208
23 января, сб
сб2301:00+5юз388655 0.2 1005219
04:00+7ююз6139572 5.6 1000931
07:00+7зюз8217686 14.0 9961834
10:00+7зсз9197672 0.3 9991645
13:00+9зсз9156569 0.9 10041776
16:00+8зсз586637 0.1 10041445
19:00+5з117868 0.1 100422
22:00+5юв1278100 0.0 100422
24 января, вс
вс2401:00+4юв2283100 0.0 100440
04:00+4ю2391100 0.1 100475
07:00+4ююз4795100 0.3 1003190
10:00+6з41183100 0.7 10041031
13:00+8зсз81364100 1.6 10061795
16:00+7зсз71372100 0.8 10071533
19:00+5зсз41281100 1.6 1009622
22:00+4зсз31184100 0.5 1011486
25 января, пн
пн2501:00+4з3887100 0.9 1012246
04:00+3з2388100 0.1 101448
07:00+2з238953 0.1 101555
10:00+4зюз368465 0.0 1018176
13:00+9зсз466379 0.1 10191331
16:00+8зсз3671100 0.4 1019934
19:00+6зюз2381100 0.6 102050
22:00+5ююз2285100 0.0 102026